User: anonymous   Login
Location: Red Shale Campground
(45.5700°N, 106.1600°W)
Time: 08:54:41
(UTC-07:00)
Language:

FENGYUN 3A - Orbit

View from above orbital plane
View from above orbital plane
View from above satellite
View from above satellite

Ground track
Ground track

The orbit data is extracted from the following two-line orbital elements,

1 32958U 08026A   17051.21828487 -.00000011  00000-0  14295-4 0  9995
2 32958  98.4220  85.6647 0008475 259.9538 100.0688 14.19650049452749
Epoch (UTC): 20 February 2017 05:14:19
Eccentricity: 0.0008475
inclination: 98.4220°
perigee height: 820 km
apogee height: 832 km
right ascension of ascending node: 85.6647°
argument of perigee: 259.9538°
revolutions per day: 14.19650049
mean anomaly at epoch: 100.0688°
orbit number at epoch: 45274

The dashed part of the orbit path shows where the satellite is in the earth's shadow,  

DLR